Detroit Lakes, MN

10:04 AM CDT on May 28, 2017 (GMT -0500)
Detroit Lakes

Weather History for KDTL - May, 2013

Change the Weather History Date:

Monday, May 20, 2013

  Actual Average Record
Temperature  
Mean Temperature 55 °F -  
Max Temperature 59 °F 70 °F 89 °F (1934)
Min Temperature 51 °F 42 °F 23 °F (1967)
Degree Days  
Heating Degree Days 10    
Growing Degree Days 5 (Base 50)    
Moisture  
Dew Point 54 °F    
Average Humidity 94    
Maximum Humidity 100    
Minimum Humidity 88    
Precipitation  
Precipitation 1.09 in - - ()
Sea Level Pressure  
Sea Level Pressure 29.53 in    
Wind  
Wind Speed 9 mph (ESE)    
Max Wind Speed 14 mph    
Max Gust Speed 23 mph    
Visibility 8 miles    
Events Rain    
Averages and records for this station are not official NWS values.
T = Trace of Precipitation, MM = Missing Value Source: NWS Daily Summary

Daily Weather History Graph

Daily Weather History Graph

Search for Another Location

Airport or City:

Trip Planner

Search our weather history database for the weather conditions in past years. The results will help you decide how hot, cold, wet, or windy it might be!

Date:

Astronomy

May. 20, 2013 Rise Set
Actual Time 5:42 AM CDT 8:58 PM CDT
Civil Twilight 5:06 AM CDT 9:34 PM CDT
Nautical Twilight 4:18 AM CDT 10:23 PM CDT
Astronomical Twilight 3:18 AM CDT 11:23 PM CDT
Moon 3:49 PM CDT (5/20) 2:57 AM CDT (5/20)
Length of Visible Light 16h 28m
Length of Day
15h 15m
Waxing Gibbous, 75% of the Moon is Illuminated
May 20
Waxing Gibbous
May 24
Full
May 31
Last Quarter
Jun 8
New
Jun 16
First Quarter

Hourly Weather History & Observations

Time (CDT) Temp. Dew Point Humidity Pressure Visibility Wind Dir Wind Speed Gust Speed Precip Events Conditions
12:16 AM 59.0 °F 55.4 °F 88% 29.61 in 10.0 mi ENE 11.5 mph 23.0 mph N/A   Overcast
12:35 AM 59.0 °F 55.4 °F 88% 29.62 in 10.0 mi East 9.2 mph - N/A   Overcast
12:56 AM 59.0 °F 55.4 °F 88% 29.61 in 10.0 mi East 13.8 mph 18.4 mph N/A   Overcast
1:16 AM 59.0 °F 55.4 °F 88% 29.61 in 10.0 mi East 9.2 mph 16.1 mph N/A   Overcast
1:35 AM 57.2 °F 55.4 °F 94% 29.59 in 10.0 mi East 11.5 mph 19.6 mph N/A   Overcast
1:55 AM 57.2 °F 53.6 °F 88% 29.59 in 10.0 mi East 10.4 mph 20.7 mph N/A   Overcast
2:16 AM 57.2 °F 53.6 °F 88% 29.57 in 10.0 mi East 9.2 mph - N/A   Overcast
2:35 AM 57.2 °F 53.6 °F 88% 29.56 in 10.0 mi East 6.9 mph - N/A   Overcast
3:16 AM 57.2 °F 53.6 °F 88% 29.54 in 10.0 mi East 5.8 mph - N/A   Overcast
3:35 AM 55.4 °F 53.6 °F 94% 29.54 in 7.0 mi East 5.8 mph - N/A   Overcast
3:55 AM 55.4 °F 53.6 °F 94% 29.54 in 4.0 mi East 5.8 mph - N/A   Overcast
4:16 AM 55.4 °F 53.6 °F 94% 29.54 in 4.0 mi ESE 9.2 mph - N/A   Drizzle
4:35 AM 53.6 °F 53.6 °F 100% 29.53 in 4.0 mi ESE 8.1 mph - 0.04 in Rain Heavy Rain
4:55 AM 53.6 °F 53.6 °F 100% 29.52 in 4.0 mi ESE 10.4 mph - 0.12 in Rain Heavy Rain
5:16 AM 53.6 °F 53.6 °F 100% 29.51 in 3.0 mi ESE 9.2 mph - 0.03 in Rain Rain
5:35 AM 53.6 °F 53.6 °F 100% 29.51 in 4.0 mi ESE 9.2 mph - 0.03 in   Drizzle
5:55 AM 53.6 °F 53.6 °F 100% 29.52 in 5.0 mi SE 6.9 mph - 0.04 in   Drizzle
6:16 AM 53.6 °F 53.6 °F 100% 29.51 in 4.0 mi SE 6.9 mph - 0.01 in   Drizzle
6:35 AM 53.6 °F 53.6 °F 100% 29.51 in 4.0 mi ESE 5.8 mph - 0.01 in   Light Drizzle
6:55 AM 53.6 °F 53.6 °F 100% 29.51 in 2.5 mi ESE 6.9 mph - 0.02 in Rain Light Rain
7:16 AM 53.6 °F 53.6 °F 100% 29.50 in 5.0 mi ESE 6.9 mph - 0.01 in Rain Light Rain
7:35 AM 53.6 °F 53.6 °F 100% 29.50 in 10.0 mi ESE 9.2 mph - 0.02 in Rain Light Rain
7:55 AM 55.4 °F 53.6 °F 94% 29.51 in 7.0 mi ESE 6.9 mph - 0.05 in Rain Light Rain
8:15 AM 55.4 °F 53.6 °F 94% 29.50 in 7.0 mi ESE 9.2 mph - 0.02 in Rain Light Rain
8:35 AM 55.4 °F 53.6 °F 94% 29.50 in 10.0 mi ESE 11.5 mph - 0.05 in Rain Rain
9:15 AM 53.6 °F 51.8 °F 94% 29.50 in 7.0 mi ESE 8.1 mph - 0.04 in Rain Rain
9:36 AM 53.6 °F 51.8 °F 94% 29.50 in 10.0 mi East 9.2 mph - 0.06 in Rain Light Rain
9:55 AM 53.6 °F 51.8 °F 94% 29.50 in 7.0 mi ESE 10.4 mph - 0.09 in Rain Light Rain
10:35 AM 53.6 °F 51.8 °F 94% 29.49 in 7.0 mi ESE 6.9 mph - 0.06 in Rain Rain
10:55 AM 53.6 °F 51.8 °F 94% 29.49 in 7.0 mi East 6.9 mph - 0.10 in Rain Light Rain
11:16 AM 53.6 °F 53.6 °F 100% 29.49 in 7.0 mi ESE 6.9 mph - 0.02 in Rain Rain
11:35 AM 53.6 °F 53.6 °F 100% 29.48 in 7.0 mi ESE 9.2 mph - 0.06 in Rain Light Rain
11:55 AM 55.4 °F 53.6 °F 94% 29.48 in 10.0 mi ESE 9.2 mph - 0.07 in Rain Rain
12:15 PM 55.4 °F 53.6 °F 94% 29.49 in 4.0 mi ESE 9.2 mph - 0.03 in Rain Light Rain
12:35 PM 55.4 °F 53.6 °F 94% 29.49 in 7.0 mi ESE 10.4 mph 16.1 mph 0.06 in Rain Light Rain
12:56 PM 55.4 °F 53.6 °F 94% 29.49 in 7.0 mi ESE 10.4 mph - N/A Rain Light Rain
1:15 PM 55.4 °F 53.6 °F 94% 29.49 in 7.0 mi ESE 8.1 mph - 0.02 in Rain Light Rain
1:55 PM 55.4 °F 53.6 °F 94% 29.49 in 7.0 mi SE 11.5 mph - 0.04 in Rain Rain
2:16 PM 55.4 °F 53.6 °F 94% 29.49 in 10.0 mi ESE 9.2 mph - 0.02 in Rain Light Rain
2:35 PM 55.4 °F 53.6 °F 94% 29.49 in 7.0 mi ESE 8.1 mph - 0.03 in Rain Rain
2:55 PM 55.4 °F 53.6 °F 94% 29.49 in 7.0 mi East 6.9 mph - 0.05 in Rain Light Rain
3:15 PM 55.4 °F 53.6 °F 94% 29.49 in 3.0 mi East 8.1 mph - 0.09 in Rain Heavy Rain
3:35 PM 55.4 °F 53.6 °F 94% 29.49 in 7.0 mi East 6.9 mph - 0.15 in Rain Rain
3:55 PM 55.4 °F 53.6 °F 94% 29.49 in 10.0 mi East 9.2 mph - 0.15 in   Overcast
4:15 PM 55.4 °F 53.6 °F 94% 29.49 in 10.0 mi East 6.9 mph - N/A   Overcast
4:35 PM 55.4 °F 53.6 °F 94% 29.49 in 10.0 mi ESE 5.8 mph - N/A   Overcast
4:55 PM 55.4 °F 55.4 °F 100% 29.49 in 4.0 mi East 5.8 mph - 0.02 in Rain Rain
5:15 PM 55.4 °F 55.4 °F 100% 29.49 in 3.0 mi East 6.9 mph - 0.04 in Rain Heavy Rain
5:35 PM 55.4 °F 55.4 °F 100% 29.50 in 4.0 mi East 5.8 mph - 0.10 in Rain Rain
5:55 PM 57.2 °F 55.4 °F 94% 29.51 in 10.0 mi East 5.8 mph - 0.12 in Rain Rain
6:15 PM 59.0 °F 55.4 °F 88% 29.51 in 3.0 mi East 8.1 mph - 0.07 in Rain Light Rain
6:35 PM 59.0 °F 57.2 °F 94% 29.51 in 7.0 mi SE 5.8 mph - 0.09 in   Light Drizzle
6:55 PM 59.0 °F 57.2 °F 94% 29.51 in 10.0 mi East 9.2 mph - 0.10 in   Overcast
7:15 PM 59.0 °F 55.4 °F 88% 29.52 in 10.0 mi East 11.5 mph 16.1 mph N/A   Mostly Cloudy
7:35 PM 59.0 °F 55.4 °F 88% 29.52 in 10.0 mi East 8.1 mph - N/A   Mostly Cloudy
7:55 PM 59.0 °F 55.4 °F 88% 29.52 in 10.0 mi East 8.1 mph 17.3 mph N/A   Overcast
8:16 PM 57.2 °F 55.4 °F 94% 29.54 in 10.0 mi East 11.5 mph 16.1 mph N/A   Mostly Cloudy
8:35 PM 55.4 °F 53.6 °F 94% 29.54 in 10.0 mi East 10.4 mph - 0.01 in   Overcast
8:55 PM 55.4 °F 53.6 °F 94% 29.55 in 10.0 mi East 12.7 mph 17.3 mph 0.01 in   Overcast
9:16 PM 53.6 °F 51.8 °F 94% 29.56 in 10.0 mi East 12.7 mph 20.7 mph N/A   Overcast
9:35 PM 53.6 °F 51.8 °F 94% 29.56 in 10.0 mi East 12.7 mph 18.4 mph N/A   Mostly Cloudy
9:55 PM 53.6 °F 51.8 °F 94% 29.57 in 10.0 mi East 8.1 mph 18.4 mph N/A   Mostly Cloudy
10:16 PM 53.6 °F 51.8 °F 94% 29.57 in 10.0 mi ESE 9.2 mph 18.4 mph N/A   Overcast
10:35 PM 53.6 °F 51.8 °F 94% 29.58 in 10.0 mi East 6.9 mph - N/A   Overcast
10:55 PM 51.8 °F 51.8 °F 100% 29.57 in 10.0 mi East 12.7 mph 18.4 mph N/A   Overcast
11:16 PM 51.8 °F 50.0 °F 94% 29.58 in 10.0 mi East 10.4 mph 16.1 mph N/A   Overcast
11:35 PM 51.8 °F 50.0 °F 94% 29.58 in 10.0 mi East 11.5 mph 17.3 mph N/A   Overcast
11:55 PM 51.8 °F 50.0 °F 94% 29.58 in 10.0 mi East 10.4 mph 19.6 mph N/A   Overcast